1507438800.1,65151,10.25,72902.3,-1.73,-3.07,-2.71,0,*53
1507438801.35,65152,10.31,72904.3,-1.73,-3.19,-2.75,0,*5B
1507438802.57,65153,10.25,72894.0,-1.75,-3.23,-2.67,0,*56
1507438803.82,65154,10.25,72886.3,-1.73,-3.07,-2.63,0,*55
1507438805.02,65155,10.25,72884.5,-1.75,-3.15,-2.79,0,*5A
1507438806.22,65156,10.25,72890.0,-1.75,-3.15,-2.79,0,*59
1507438807.47,65157,10.31,72896.3,-1.73,-3.19,-2.75,0,*5E
1507438808.67,65158,10.31,72900.5,-1.75,-3.27,-2.79,0,*56
1507438809.91,65159,10.25,72902.0,-1.73,-3.23,-2.71,0,*5D
1507438811.16,65160,10.25,72898.5,-1.73,-3.19,-2.63,0,*5D
1507438812.41,65161,10.31,72882.0,-1.73,-3.19,-2.63,0,*5C
1507438813.66,65162,10.31,72872.3,-1.73,-3.19,-2.63,0,*5F
1507438814.91,65163,10.25,72892.3,-1.73,-3.11,-2.63,0,*56
1507438816.13,65164,10.25,72898.5,-1.73,-3.19,-2.83,0,*57
1507438817.35,65165,10.31,72892.5,-1.73,-3.23,-2.95,0,*58
1507438818.55,65166,10.25,72886.8,-1.75,-3.27,-2.91,0,*5D
1507438819.75,65167,10.25,72900.0,-1.75,-4.53,-3.91,0,*59
1507438820.96,65168,10.31,72904.8,-1.73,-4.37,-3.83,0,*51
1507438822.16,65169,10.25,72906.8,-1.75,-4.21,-3.87,0,*55
1507438823.37,65170,10.25,72904.3,-1.71,-4.25,-3.91,0,*5A
1507438824.59,65171,10.25,72908.5,-1.71,-4.09,-3.59,0,*51
1507438825.83,65172,10.25,72902.5,-1.73,-4.09,-3.63,0,*59
1507438827.08,65173,10.25,72898.5,-1.73,-3.95,-3.59,0,*53
1507438828.33,65174,10.25,72896.3,-1.73,-3.95,-3.59,0,*54
1507438829.57,65175,10.31,72898.8,-1.75,-4.01,-3.67,0,*54
1507438830.84,65176,10.25,72890.3,-1.73,-4.01,-3.71,0,*56
1507438832.11,65177,10.25,72892.5,-1.73,-4.01,-3.71,0,*57
1507438833.33,65178,10.25,72884.3,-1.73,-4.09,-3.87,0,*59
1507438834.58,65179,10.25,72884.8,-1.73,-4.25,-4.01,0,*5F
1507438835.79,65180,10.25,72888.8,-1.73,-4.29,-4.17,0,*52
1507438836.99,65181,10.25,72886.8,-1.75,-4.41,-4.29,0,*56
1507438838.23,65182,10.25,72890.5,-1.73,-4.73,-4.49,0,*54
1507438839.48,65183,10.25,72878.8,-1.73,-4.89,-4.49,0,*50
1507438840.72,65184,10.25,72884.0,-1.73,-4.89,-4.41,0,*5F
1507438841.96,65185,10.25,72888.0,-1.73,-4.85,-4.53,0,*51
1507438843.2,65186,10.25,72892.3,-1.73,-4.85,-4.65,0,*57
1507438844.47,65187,10.25,72898.3,-1.73,-5.19,-4.73,0,*55
1507438845.72,65188,10.25,72900.8,-1.73,-5.43,-4.85,0,*5C
1507438846.97,65189,10.25,72898.3,-1.73,-5.19,-4.53,0,*59
1507438848.22,65190,10.25,72894.3,-1.73,-5.07,-4.61,0,*5F
1507438849.49,65191,10.25,72894.5,-1.73,-5.07,-4.73,0,*5D
1507438850.77,65192,10.25,72882.3,-1.73,-5.31,-4.85,0,*52
1507438852.04,65193,10.25,72882.0,-1.73,-5.69,-5.15,0,*56
1507438853.27,65194,10.25,72884.5,-1.73,-4.53,-3.71,0,*5D
1507438854.52,65195,10.25,72882.3,-1.73,-5.27,-4.37,0,*5B
1507438855.77,65196,10.25,72878.0,-1.73,-5.69,-4.61,0,*51
1507438856.98,65197,10.25,72876.5,-1.75,-5.97,-4.65,0,*53
1507438858.2,65198,10.25,72866.5,-1.75,-5.81,-4.33,0,*58
1507438859.45,65199,10.25,72870.3,-1.73,-5.77,-4.41,0,*53
1507438860.67,65200,10.25,72876.8,-1.75,-6.93,-5.47,0,*58
1507438861.92,65201,10.25,72886.8,-1.73,-7.35,-5.39,0,*5B
1507438863.17,65202,10.25,72882.5,-1.73,-6.77,-5.03,0,*56
1507438864.4,65203,10.25,72878.8,-1.73,-6.09,-4.65,0,*5F
1507438865.6,65204,10.25,72876.8,-1.71,-5.51,-4.41,0,*52
1507438866.85,65205,10.31,72888.8,-1.73,-5.19,-4.37,0,*5C
1507438868.06,65206,10.25,72884.5,-1.75,-5.47,-4.21,0,*55
1507438869.27,65207,10.25,72888.0,-1.75,-5.47,-4.21,0,*54
1507438870.51,65208,10.25,72886.3,-1.73,-5.19,-4.09,0,*5C
1507438871.74,65209,10.25,72886.8,-1.75,-5.19,-4.21,0,*51
1507438872.98,65210,10.25,72876.3,-1.75,-4.81,-4.01,0,*5B
1507438874.21,65211,10.31,72876.0,-1.75,-5.03,-4.13,0,*52
1507438875.46,65212,10.25,72874.0,-1.73,-5.07,-4.09,0,*58
1507438876.7,65213,10.25,72866.8,-1.73,-5.15,-4.17,0,*55
1507438877.95,65214,10.25,72862.8,-1.73,-5.19,-4.25,0,*5F
1507438879.2,65215,10.25,72874.8,-1.73,-6.47,-5.15,0,*54
1507438880.44,65216,10.25,72886.8,-1.73,-7.91,-5.51,0,*5D
1507438881.67,65217,10.25,72886.3,-1.73,-8.59,-5.51,0,*57
1507438882.92,65218,10.31,72890.0,-1.73,-8.37,-5.19,0,*5C
1507438884.16,65219,10.25,72884.3,-1.73,-7.91,-4.61,0,*50
1507438885.39,65220,10.25,72878.8,-1.73,-7.11,-4.53,0,*53
1507438886.62,65221,10.25,72870.0,-1.73,-5.55,-3.95,0,*5D
1507438887.86,65222,10.25,72868.3,-1.73,-4.89,-3.75,0,*50
1507438889.1,65223,10.25,72860.5,-1.73,-4.77,-3.75,0,*50
1507438890.34,65224,10.25,72854.0,-1.73,-4.49,-3.51,0,*5C
1507438891.57,65225,10.25,72848.3,-1.71,-3.47,-2.95,0,*5F
1507438892.79,65226,10.31,72890.0,-1.73,-3.39,-2.83,0,*50
1507438894.01,65227,10.25,72892.5,-1.73,-3.75,-3.11,0,*53
1507438895.24,65228,10.25,72876.3,-1.71,-6.73,-4.73,0,*5E
1507438896.46,65229,10.25,72882.3,-1.71,-6.85,-4.73,0,*56
1507438897.67,65230,10.25,72888.3,-1.71,-6.59,-4.65,0,*58
1507438898.91,65231,10.25,72878.5,-1.73,-6.85,-4.73,0,*5D
1507438900.12,65232,10.25,72880.5,-1.71,-6.59,-4.61,0,*5E
1507438901.34,65233,10.25,72880.8,-1.73,-6.47,-4.61,0,*52
1507438902.59,65234,10.25,72884.0,-1.73,-6.77,-4.73,0,*55
1507438903.81,65235,10.25,72888.0,-1.75,-6.69,-4.81,0,*50
1507438905.06,65236,10.31,72886.5,-1.73,-7.11,-4.77,0,*52
1507438906.29,65237,10.25,72888.8,-1.71,-7.11,-4.77,0,*51
1507438907.51,65238,10.25,72886.0,-1.73,-6.85,-4.65,0,*53
1507438908.73,65239,10.25,72886.5,-1.73,-6.43,-4.41,0,*5E
1507438909.94,65240,10.25,72878.0,-1.75,-6.09,-4.33,0,*5D
1507438911.15,65241,10.31,72888.0,-1.73,-6.05,-4.41,0,*53
1507438912.37,65242,10.25,72888.8,-1.73,-5.97,-4.41,0,*58
1507438913.6,65243,10.25,72878.5,-1.73,-5.97,-4.49,0,*51
1507438914.82,65244,10.25,72886.3,-1.73,-5.97,-4.49,0,*56
1507438916.02,65245,10.25,72888.0,-1.75,-6.01,-4.65,0,*53
1507438917.27,65246,10.25,72888.3,-1.73,-5.93,-4.53,0,*5B
1507438918.5,65247,10.25,72896.3,-1.71,-5.81,-4.49,0,*50
1507438919.7,65248,10.31,72898.0,-1.71,-5.51,-4.41,0,*5A
1507438920.91,65249,10.25,72890.5,-1.71,-5.55,-4.49,0,*57
1507438922.11,65250,10.25,72890.3,-1.71,-5.55,-4.49,0,*5F
1507438923.34,65251,10.25,72886.8,-1.69,-5.47,-4.49,0,*54
1507438924.54,65252,10.31,72884.0,-1.71,-5.51,-4.61,0,*53
1507438925.75,65253,10.25,72876.5,-1.71,-5.39,-4.57,0,*59
1507438926.97,65254,10.25,72872.0,-1.71,-5.65,-4.61,0,*52
1507438928.2,65255,10.31,72870.8,-1.71,-5.65,-4.61,0,*53
1507438929.43,65256,10.25,72874.5,-1.71,-5.51,-4.73,0,*54
1507438930.66,65257,10.31,72880.3,-1.71,-5.55,-4.77,0,*55
1507438931.9,65258,10.25,72878.3,-1.71,-4.85,-4.73,0,*52
1507438933.15,65259,10.31,72882.5,-1.69,-5.15,-4.99,0,*56
1507438934.39,65260,10.25,72884.3,-1.71,-5.55,-5.27,0,*55
1507438935.64,65261,10.25,72882.5,-1.71,-5.65,-5.31,0,*50
1507438936.87,65262,10.31,72890.5,-1.71,-5.69,-5.39,0,*57
1507438938.08,65263,10.31,72886.3,-1.71,-5.97,-5.55,0,*5D
1507438939.3,65264,10.25,72884.3,-1.71,-5.97,-5.65,0,*59
1507438940.53,65265,10.31,72890.3,-1.71,-5.97,-5.65,0,*58
1507438941.78,65266,10.25,72884.8,-1.71,-6.19,-5.77,0,*5D
1507438943.01,65267,10.25,72886.5,-1.71,-6.31,-5.85,0,*5B
1507438944.21,65268,10.25,72884.5,-1.71,-6.35,-6.09,0,*57
1507438945.46,65269,10.31,72888.5,-1.71,-6.63,-6.19,0,*54
1507438946.66,65270,10.31,72888.5,-1.71,-6.89,-6.35,0,*56
1507438947.89,65271,10.31,72888.5,-1.71,-7.01,-6.43,0,*57
1507438949.09,65272,10.31,72888.3,-1.71,-7.11,-6.43,0,*55
1507438950.3,65273,10.25,72886.0,-1.71,-7.15,-6.31,0,*55
1507438951.57,65274,10.31,72890.8,-1.69,-6.97,-6.27,0,*57
1507438952.85,65275,10.31,72888.3,-1.69,-6.97,-6.19,0,*5B
1507438954.1,65276,10.25,72888.5,-1.69,-7.05,-6.05,0,*5F
1507438955.32,65277,10.25,72886.3,-1.71,-6.97,-5.97,0,*55
1507438956.57,65278,10.31,72890.0,-1.71,-7.91,-5.93,0,*59
1507438957.82,65279,10.25,72890.8,-1.71,-7.77,-5.69,0,*55
1507438959.07,65280,10.25,72892.0,-1.71,-7.69,-5.65,0,*50
1507438960.32,65281,10.25,72894.0,-1.71,-7.65,-5.65,0,*5D
1507438961.54,65282,10.25,72880.0,-1.69,-7.23,-5.39,0,*5C
1507438962.79,65283,10.25,72878.8,-1.69,-7.05,-5.35,0,*55
1507438964.04,65284,10.25,72882.3,-1.69,-7.05,-5.47,0,*57
1507438965.27,65285,10.31,72892.3,-1.71,-7.05,-5.51,0,*58
1507438966.49,65286,10.25,72892.3,-1.71,-7.01,-5.51,0,*5F
1507438967.72,65287,10.31,72890.3,-1.71,-6.97,-5.51,0,*50
1507438968.93,65288,10.25,72888.8,-1.71,-7.15,-5.55,0,*50
1507438970.14,65289,10.31,72890.5,-1.71,-7.11,-5.39,0,*5F
1507438971.37,65290,10.31,72894.0,-1.71,-6.31,-5.19,0,*56
1507438972.57,65291,10.25,72884.3,-1.71,-6.59,-5.39,0,*5B
1507438973.8,65292,10.25,72886.8,-1.71,-6.97,-5.55,0,*50
1507438975.03,65293,10.25,72890.5,-1.69,-7.11,-5.51,0,*53
1507438976.28,65294,10.31,72894.3,-1.71,-7.01,-5.65,0,*5B
1507438977.52,65295,10.31,72896.3,-1.71,-7.11,-5.65,0,*5B
1507438978.74,65296,10.25,72892.8,-1.71,-7.01,-5.43,0,*5D
1507438979.94,65297,10.31,72902.0,-1.71,-6.81,-5.39,0,*58
1507438981.2,65298,10.25,72902.5,-1.69,-6.51,-5.23,0,*58
1507438982.4,65299,10.31,72896.0,-1.71,-6.55,-5.39,0,*5F
1507438983.69,65300,10.31,72902.5,-1.69,-6.93,-5.61,0,*50
1507438984.88,65301,10.25,72888.0,-1.71,-6.85,-5.43,0,*5F
1507438986.11,65302,10.25,72894.5,-1.69,-6.59,-5.51,0,*57
1507438987.37,65303,10.31,72894.5,-1.71,-7.01,-5.85,0,*5A
1507438988.58,65304,10.25,72886.5,-1.71,-7.39,-6.05,0,*5D
1507438989.81,65305,10.31,72886.8,-1.71,-7.77,-6.31,0,*51
1507438991.01,65306,10.25,72884.8,-1.71,-8.29,-6.55,0,*54
1507438992.21,65307,10.25,72894.5,-1.71,-8.75,-6.77,0,*5C
1507438993.41,65308,10.31,72892.5,-1.71,-8.63,-6.73,0,*50
1507438994.61,65309,10.25,72894.0,-1.71,-8.97,-6.77,0,*5E
1507438995.82,65310,10.31,72896.3,-1.71,-8.85,-6.55,0,*55
1507438997.03,65311,10.25,72896.3,-1.71,-8.71,-6.43,0,*58
1507438998.23,65312,10.25,72896.8,-1.71,-8.71,-6.43,0,*5B
1507438999.45,65313,10.25,72898.5,-1.71,-8.29,-6.23,0,*51
1507439000.67,65314,10.25,72894.3,-1.71,-7.77,-5.97,0,*5E
1507439001.87,65315,10.25,72892.8,-1.71,-8.29,-6.59,0,*5A
1507439003.1,65316,10.31,72894.8,-1.71,-9.11,-6.89,0,*5E
1507439004.33,65317,10.25,72888.0,-1.69,-9.19,-6.73,0,*5B
1507439005.53,65318,10.25,72890.8,-1.71,-9.23,-6.77,0,*50
1507439006.73,65319,10.25,72896.5,-1.71,-8.97,-6.43,0,*58
1507439007.96,65320,10.25,72896.0,-1.69,-9.19,-6.59,0,*57
1507439009.18,65321,10.25,72898.8,-1.69,-9.23,-6.51,0,*57
1507439010.46,65322,10.25,72898.0,-1.69,-8.81,-6.27,0,*5C
1507439011.66,65323,10.31,72896.5,-1.71,-8.71,-6.35,0,*58
1507439012.91,65324,10.31,72890.3,-1.71,-8.51,-6.23,0,*5A
1507439014.15,65325,10.25,72888.0,-1.69,-8.71,-6.31,0,*53
1507439015.35,65326,10.25,72886.0,-1.71,-8.89,-6.35,0,*5A
1507439016.58,65327,10.25,72886.5,-1.69,-8.55,-6.13,0,*57
1507439017.85,65328,10.25,72868.0,-1.69,-7.77,-5.73,0,*52
1507439019.07,65329,10.25,72886.8,-1.69,-4.13,-3.35,0,*56
1507439020.32,65330,10.31,72894.0,-1.71,-4.01,-3.47,0,*51
1507439021.56,65331,10.25,72882.0,-1.69,-4.33,-3.43,0,*5C
1507439022.8,65332,10.25,72876.0,-1.71,-4.73,-3.63,0,*50
1507439024.02,65333,10.25,72880.8,-1.71,-5.19,-3.87,0,*56
1507439025.26,65334,10.25,72882.5,-1.69,-4.93,-3.79,0,*5A
1507439026.48,65335,10.31,72886.8,-1.71,-4.53,-3.51,0,*54
1507439027.74,65336,10.25,72882.0,-1.69,-4.73,-3.67,0,*59
1507439028.98,65337,10.25,72882.5,-1.69,-5.27,-4.13,0,*5C
1507439030.23,65338,10.25,72886.8,-1.69,-5.61,-4.37,0,*57
1507439031.51,65339,10.25,72884.5,-1.69,-5.89,-4.73,0,*50
1507439032.79,65340,10.25,72884.8,-1.69,-6.19,-4.81,0,*59
1507439034.06,65341,10.25,72892.0,-1.69,-6.27,-4.81,0,*55
1507439035.33,65342,10.25,72896.8,-1.69,-6.19,-4.73,0,*56
1507439036.58,65343,10.25,72896.3,-1.69,-5.61,-4.09,0,*56
1507439037.8,65344,10.25,72894.8,-1.71,-5.07,-3.95,0,*5A
1507439039.03,65345,10.25,72894.0,-1.71,-5.07,-4.41,0,*55
1507439040.26,65346,10.25,72888.8,-1.71,-5.15,-4.57,0,*52
1507439041.52,65347,10.25,72892.5,-1.69,-5.23,-4.57,0,*5F
1507439042.77,65348,10.25,72884.0,-1.69,-5.47,-4.69,0,*5F
1507439044.01,65349,10.25,72878.5,-1.69,-5.61,-4.49,0,*58
1507439045.21,65350,10.25,72880.5,-1.67,-5.47,-4.45,0,*56
1507439046.43,65351,10.25,72886.5,-1.71,-4.77,-3.95,0,*58
1507439047.67,65352,10.25,72888.8,-1.69,-4.25,-3.55,0,*59
1507439048.88,65353,10.25,72900.3,-1.69,-4.45,-3.79,0,*50
1507439050.12,65354,10.25,72898.3,-1.69,-4.85,-4.05,0,*57
1507439051.35,65355,10.25,72896.0,-1.71,-5.51,-4.77,0,*52
1507439052.6,65356,10.25,72890.0,-1.69,-9.67,-7.99,0,*52
1507439053.8,65357,10.25,72902.3,-1.71,-9.71,-7.83,0,*56
1507439055.02,65358,10.25,72892.0,-1.69,-10.05,-8.17,0,*69
1507439056.24,65359,10.25,72888.0,-1.69,-10.09,-8.17,0,*64
1507439057.46,65360,10.25,72892.3,-1.69,-10.57,-8.71,0,*65
1507439058.66,65361,10.25,72888.0,-1.71,-10.93,-8.75,0,*61
1507439059.88,65362,10.25,72896.3,-1.69,-10.85,-8.67,0,*6F
1507439061.1,65363,10.25,72900.5,-1.69,-10.93,-8.67,0,*69
1507439062.3,65364,10.25,72902.0,-1.71,-10.93,-8.59,0,*6A
1507439063.53,65365,10.25,72902.8,-1.71,-11.89,-9.23,0,*6D
1507439064.74,65366,10.31,72900.5,-1.71,-12.21,-8.97,0,*61
1507439065.97,65367,10.25,72902.5,-1.69,-12.29,-8.93,0,*65
1507439067.22,65368,10.31,72902.0,-1.69,-11.97,-8.59,0,*6A
1507439068.46,65369,10.25,72898.8,-1.69,-11.73,-8.55,0,*6D
1507439069.73,65370,10.31,72902.3,-1.71,-11.59,-8.07,0,*63
1507439070.98,65371,10.25,72896.0,-1.69,-10.71,-7.53,0,*6E
1507439072.23,65372,10.25,72892.3,-1.69,-9.75,-7.31,0,*55
1507439073.48,65373,10.25,72896.8,-1.69,-9.41,-7.19,0,*59
1507439074.7,65374,10.25,72900.0,-1.71,-9.93,-7.39,0,*5A
1507439075.94,65375,10.25,72892.0,-1.69,-9.61,-6.73,0,*50
1507439077.15,65376,10.25,72888.8,-1.71,-8.85,-6.43,0,*52
1507439078.35,65377,10.25,72886.5,-1.71,-8.59,-6.59,0,*59
1507439079.59,65378,10.25,72888.5,-1.69,-9.23,-7.05,0,*5B
1507439080.85,65379,10.25,72888.8,-1.71,-10.67,-7.39,0,*64
1507439082.06,65380,10.25,72888.5,-1.71,-10.23,-6.77,0,*69
1507439083.26,65381,10.25,72896.5,-1.71,-9.79,-6.55,0,*5F
1507439084.48,65382,10.31,72898.3,-1.71,-9.53,-6.43,0,*53
1507439085.7,65383,10.25,72888.0,-1.69,-8.97,-6.01,0,*54
1507439086.95,65384,10.25,72894.8,-1.69,-8.25,-5.73,0,*5C
1507439088.2,65385,10.25,72896.8,-1.71,-8.03,-5.65,0,*57
1507439089.45,65386,10.25,72898.8,-1.71,-7.95,-5.69,0,*58
1507439090.71,65387,10.25,72898.0,-1.71,-7.73,-5.31,0,*5C
1507439091.94,65388,10.25,72888.5,-1.71,-7.11,-5.15,0,*51
1507439093.17,65389,10.25,72890.3,-1.71,-6.73,-5.07,0,*56
1507439094.4,65390,10.25,72884.5,-1.71,-6.47,-4.89,0,*5E
1507439095.63,65391,10.25,72884.3,-1.71,-6.35,-4.77,0,*5B
1507439096.83,65392,10.25,72878.3,-1.71,-6.35,-4.65,0,*5B
1507439098.06,65393,10.25,72884.0,-1.71,-6.19,-4.53,0,*51
1507439099.29,65394,10.25,72890.0,-1.69,-5.47,-4.25,0,*56
1507439100.54,65395,10.25,72890.3,-1.69,-5.77,-4.49,0,*5E
1507439101.77,65396,10.25,72896.0,-1.71,-5.69,-4.49,0,*5B
1507439102.97,65397,10.25,72902.5,-1.71,-5.51,-4.41,0,*59
1507439104.17,65398,10.31,72906.5,-1.71,-5.43,-4.41,0,*55
1507439105.36,65399,10.25,72910.3,-1.71,-5.43,-4.37,0,*55
1507439106.62,65400,10.25,72898.3,-1.69,-5.23,-4.37,0,*5D
1507439107.85,65401,10.31,72900.3,-1.71,-5.23,-4.29,0,*5A
1507439109.09,65402,10.31,72890.0,-1.69,-5.27,-4.33,0,*5F
1507439110.32,65403,10.25,72888.3,-1.71,-5.27,-4.29,0,*5C
1507439111.54,65404,10.31,72894.3,-1.69,-4.99,-4.25,0,*5A
1507439112.76,65405,10.25,72888.3,-1.71,-4.89,-4.17,0,*52
1507439114.0,65406,10.31,72894.5,-1.69,-4.73,-4.09,0,*52
1507439115.22,65407,10.25,72890.8,-1.71,-4.85,-4.29,0,*51
1507439116.44,65408,10.25,72882.3,-1.71,-4.93,-4.41,0,*57
1507439117.66,65409,10.25,72878.8,-1.67,-5.03,-4.45,0,*5D
1507439118.89,65410,10.25,72890.3,-1.71,-5.31,-4.49,0,*5F
1507439120.11,65411,10.31,72898.3,-1.69,-5.39,-4.37,0,*56
1507439121.37,65412,10.31,72894.3,-1.69,-5.65,-4.57,0,*5A
1507439122.62,65413,10.31,72898.5,-1.71,-5.85,-4.73,0,*5A
1507439123.87,65414,10.25,72894.0,-1.69,-6.01,-4.85,0,*52
1507439125.13,65415,10.25,72898.8,-1.69,-6.39,-5.23,0,*55
1507439126.36,65416,10.31,72900.8,-1.71,-6.97,-5.51,0,*5E
1507439127.59,65417,10.25,72898.0,-1.71,-7.11,-5.65,0,*57
1507439128.81,65418,10.25,72896.3,-1.71,-7.15,-5.65,0,*5C
1507439130.06,65419,10.25,72896.5,-1.69,-7.05,-5.51,0,*52
1507439131.29,65420,10.25,72898.3,-1.71,-7.11,-5.65,0,*53
1507439132.55,65421,10.25,72896.5,-1.69,-6.97,-5.51,0,*53
1507439133.79,65422,10.25,72900.0,-1.71,-7.39,-5.77,0,*58
1507439135.0,65423,10.25,72900.3,-1.71,-7.15,-5.55,0,*57
1507439136.25,65424,10.25,72900.3,-1.71,-7.35,-5.77,0,*52
1507439137.47,65425,10.25,72898.3,-1.71,-7.53,-5.81,0,*5A
1507439138.69,65426,10.25,72894.0,-1.69,-7.49,-5.51,0,*56
1507439139.9,65427,10.25,72892.0,-1.71,-7.15,-5.39,0,*59
1507439141.12,65428,10.25,72890.0,-1.69,-6.59,-5.35,0,*5A
1507439142.38,65429,10.25,72884.8,-1.69,-6.55,-5.27,0,*54
1507439143.59,65430,10.25,72880.0,-1.71,-6.77,-5.55,0,*50
1507439144.86,65431,10.25,72886.0,-1.69,-6.97,-5.73,0,*52
1507439146.11,65432,10.25,72896.0,-1.69,-7.23,-5.93,0,*51
1507439147.31,65433,10.25,72898.5,-1.71,-7.87,-6.55,0,*5E
1507439148.51,65434,10.25,72894.0,-1.71,-8.21,-6.73,0,*5E
1507439149.75,65435,10.25,72896.0,-1.69,-8.59,-6.93,0,*57
1507439151.03,65436,10.25,72896.8,-1.69,-9.11,-7.05,0,*57
1507439152.28,65437,10.25,72892.5,-1.71,-9.45,-6.97,0,*54
1507439153.5,65438,10.25,72892.3,-1.69,-9.19,-6.59,0,*59
1507439154.71,65439,10.25,72886.8,-1.71,-8.85,-6.43,0,*5E
1507439155.93,65440,10.25,72880.8,-1.69,-8.55,-6.13,0,*51
1507439157.13,65441,10.25,72878.3,-1.71,-8.21,-6.05,0,*5D
1507439158.36,65442,10.25,72870.3,-1.71,-7.83,-5.81,0,*56
1507439159.63,65443,10.25,72876.3,-1.69,-7.77,-5.77,0,*5C
1507439160.88,65444,10.25,72870.5,-1.69,-7.43,-5.51,0,*58
1507439162.13,65445,10.25,72866.8,-1.69,-7.19,-5.81,0,*5B
1507439163.36,65446,10.25,72870.5,-1.71,-7.11,-5.93,0,*5A
1507439164.59,65447,10.25,72866.8,-1.71,-7.23,-6.23,0,*52
1507439165.81,65448,10.25,72880.0,-1.71,-7.65,-6.47,0,*5D
1507439167.03,65449,10.25,72896.5,-1.71,-8.03,-6.73,0,*54
1507439168.26,65450,10.25,72906.8,-1.71,-8.37,-6.97,0,*51
1507439169.5,65451,10.25,72894.5,-1.73,-8.97,-7.69,0,*58
1507439170.72,65452,10.25,72892.0,-1.73,-10.23,-8.17,0,*6B
1507439172.0,65453,10.25,72888.5,-1.73,-10.41,-7.77,0,*67
1507439173.25,65454,10.25,72886.3,-1.73,-10.23,-7.69,0,*6B
1507439174.47,65455,10.25,72886.0,-1.71,-10.05,-7.95,0,*6F
1507439175.68,65456,10.25,72882.5,-1.71,-10.35,-8.37,0,*68
1507439176.88,65457,10.25,72888.0,-1.71,-8.21,-7.11,0,*5E
1507439178.12,65458,10.25,72894.3,-1.71,-12.43,-9.53,0,*66
1507439179.35,65459,10.25,72898.8,-1.71,-12.75,-9.97,0,*6A
1507439180.55,65460,10.25,72894.0,-1.71,-13.55,-9.97,0,*63
1507439181.81,65461,10.25,72898.8,-1.71,-13.61,-9.45,0,*6A
1507439183.06,65462,10.25,72888.3,-1.73,-12.61,-8.29,0,*61
1507439184.31,65463,10.25,72894.8,-1.73,-11.07,-7.53,0,*61
1507439185.51,65464,10.25,72888.5,-1.75,-10.15,-7.53,0,*62
1507439186.76,65465,10.25,72882.0,-1.73,-9.97,-8.07,0,*59
1507439188.03,65466,10.25,72866.0,-1.73,-11.07,-9.15,0,*68
1507439189.29,65467,10.25,72902.5,-1.73,-11.93,-9.27,0,*65
1507439190.57,65468,10.25,72902.3,-1.73,-12.35,-9.11,0,*60
1507439191.8,65469,10.25,72902.5,-1.73,-12.21,-9.27,0,*61
1507439193.03,65470,10.25,72900.5,-1.73,-12.89,-9.71,0,*68
1507439194.25,65471,10.31,72890.8,-1.73,-13.69,-9.97,0,*6E
1507439195.51,65472,10.25,72890.3,-1.73,-14.55,-10.05,0,*56
1507439196.74,65473,10.25,72900.5,-1.73,-14.33,-9.23,0,*6B
1507439197.96,65474,10.25,72898.3,-1.73,-12.93,-8.21,0,*63
1507439199.24,65475,10.25,72896.3,-1.73,-11.33,-7.77,0,*67
1507439200.48,65476,10.25,72894.8,-1.75,-10.93,-7.57,0,*6B
1507439201.71,65477,10.25,72892.8,-1.71,-10.63,-7.83,0,*68
1507439202.95,65478,10.25,72890.5,-1.71,-11.23,-8.07,0,*61
1507439204.21,65479,10.25,72892.3,-1.75,-11.29,-8.07,0,*6E
1507439205.46,65480,10.25,72896.3,-1.73,-11.19,-8.03,0,*69
1507439206.67,65481,10.25,72894.5,-1.75,-11.23,-7.87,0,*64
1507439207.92,65482,10.25,72902.8,-1.73,-11.11,-7.39,0,*65
1507439209.19,65483,10.25,72894.3,-1.73,-10.63,-7.01,0,*6B
1507439210.42,65484,10.25,72900.5,-1.75,-9.61,-6.59,0,*5C
1507439211.63,65485,10.25,72898.5,-1.73,-8.97,-6.09,0,*56
1507439212.88,65486,10.25,72892.3,-1.71,-8.03,-5.85,0,*5D
1507439214.11,65487,10.25,72898.5,-1.71,-7.83,-5.81,0,*5F
1507439215.36,65488,10.25,72900.5,-1.73,-7.49,-5.85,0,*50
1507439216.61,65489,10.25,72896.0,-1.71,-7.77,-5.93,0,*59
1507439217.83,65490,10.25,72894.5,-1.71,-7.57,-6.09,0,*53
1507439219.08,65491,10.25,72898.0,-1.73,-7.95,-6.43,0,*50
1507439220.33,65492,10.25,72896.3,-1.73,-8.63,-7.01,0,*52
1507439221.56,65493,10.25,72902.8,-1.75,-9.11,-7.15,0,*54
1507439222.79,65494,10.25,72900.8,-1.73,-9.01,-7.11,0,*50
1507439224.03,65495,10.25,72888.0,-1.73,-9.53,-7.15,0,*52
1507439225.28,65496,10.25,72882.8,-1.73,-9.83,-7.11,0,*58
1507439226.5,65497,10.25,72882.8,-1.73,-8.75,-6.55,0,*50
1507439227.71,65498,10.25,72894.0,-1.75,-8.63,-6.81,0,*57
1507439228.98,65499,10.25,72886.3,-1.73,-9.41,-7.35,0,*5F
1507439230.21,65500,10.25,72888.5,-1.73,-10.23,-7.83,0,*6F
1507439231.44,65501,10.31,72900.3,-1.73,-10.27,-7.83,0,*6A
1507439232.68,65502,10.25,72884.5,-1.73,-10.53,-7.91,0,*69
1507439233.91,65503,10.25,72876.5,-1.75,-10.53,-7.57,0,*64
1507439235.12,65504,10.25,72870.5,-1.75,-9.83,-7.53,0,*52
1507439236.36,65505,10.25,72882.8,-1.73,-9.97,-7.91,0,*5E
1507439237.61,65506,10.25,72878.8,-1.73,-10.05,-7.57,0,*64
1507439238.87,65507,10.25,72876.3,-1.73,-9.83,-7.95,0,*5D
1507439240.11,65508,10.25,72880.5,-1.73,-10.79,-8.71,0,*6A
1507439241.36,65509,10.25,72876.3,-1.73,-11.51,-9.27,0,*62
1507439242.61,65510,10.25,72872.5,-1.73,-12.61,-9.79,0,*61
1507439243.84,65511,10.25,72872.3,-1.75,-12.89,-9.45,0,*6F
1507439245.08,65512,10.25,72886.8,-1.73,-8.33,-7.01,0,*5E
1507439246.27,65513,10.25,72888.3,-1.75,-10.09,-8.75,0,*65
1507439247.5,65514,10.25,72886.8,-1.73,-11.19,-9.71,0,*61
1507439248.78,65515,10.25,72892.8,-1.73,-11.63,-9.45,0,*6A
1507439250.05,65516,10.25,72894.0,-1.73,-11.33,-9.11,0,*6D
1507439251.26,65517,10.25,72894.5,-1.75,-11.11,-9.01,0,*6B
1507439252.45,65518,10.25,72894.0,-1.75,-10.53,-8.67,0,*62
1507439253.7,65519,10.25,72900.5,-1.75,-10.79,-8.81,0,*63
1507439254.93,65520,10.25,72888.0,-1.73,-10.35,-7.83,0,*6A
1507439256.21,65521,10.25,72882.5,-1.73,-9.15,-7.35,0,*5C
1507439257.43,65522,10.25,72884.5,-1.75,-8.67,-7.39,0,*51
1507439258.67,65523,10.25,72880.5,-1.75,-8.89,-7.73,0,*5E
1507439259.9,65524,10.25,72878.0,-1.75,-8.93,-7.57,0,*54
1507439261.12,65525,10.25,72878.5,-1.73,-7.11,-6.09,0,*5C
1507439262.35,65526,10.25,72880.0,-1.75,-7.73,-6.51,0,*50
1507439263.55,65527,10.25,72880.5,-1.75,-8.33,-7.15,0,*5B
1507439264.76,65528,10.25,72876.0,-1.75,-7.19,-5.55,0,*55
1507439265.97,65529,10.25,72878.5,-1.75,-3.79,-3.11,0,*50
1507439267.19,65530,10.25,72882.8,-1.75,-11.89,-9.31,0,*6C
1507439268.42,65531,10.25,72884.8,-1.75,-11.67,-8.25,0,*69
1507439269.65,65532,10.25,72880.5,-1.75,-10.45,-7.39,0,*69
1507439270.89,65533,10.25,72880.8,-1.75,-9.49,-7.05,0,*53
1507439272.11,65534,10.25,72884.5,-1.75,-8.67,-6.93,0,*57
1507439273.31,65535,10.25,72892.5,-1.75,-8.25,-6.69,0,*55
1507439274.49,0,10.25,72892.5,-1.75,-7.87,-6.51,0,*59
1507439275.69,1,10.25,72888.3,-1.75,-7.87,-7.01,0,*5C
1507439276.91,2,10.25,72894.3,-1.75,-6.27,-6.27,0,*51
1507439278.11,3,10.25,72906.3,-1.75,-6.01,-4.77,0,*53
1507439279.34,4,10.25,72906.8,-1.75,-5.89,-4.69,0,*58
1507439280.58,5,10.25,72904.3,-1.73,-4.89,-3.71,0,*50
1507439281.78,6,10.25,72914.5,-1.75,-5.19,-3.87,0,*54
1507439282.98,7,10.25,72912.5,-1.75,-5.11,-3.79,0,*5C
1507439284.18,8,10.25,72906.3,-1.75,-5.47,-4.01,0,*58
1507439285.38,9,10.25,72894.3,-1.75,-5.73,-4.05,0,*5A
1507439286.6,10,10.25,72876.3,-1.73,-5.81,-3.87,0,*64
1507439287.82,11,10.25,72874.5,-1.75,-11.29,-9.27,0,*54
1507439289.04,12,10.25,72876.3,-1.75,-12.75,-9.97,0,*56
1507439290.25,13,10.25,72882.3,-1.75,-12.61,-9.97,0,*52
1507439291.5,14,10.25,72884.8,-1.77,-12.07,-10.01,0,*60
1507439292.75,15,10.25,72894.8,-1.75,-12.35,-10.41,0,*66
1507439293.97,16,10.25,72902.5,-1.73,-12.89,-10.49,0,*6C
1507439295.19,17,10.25,72906.5,-1.73,-13.19,-10.53,0,*6E
1507439296.41,18,10.25,72912.3,-1.75,-13.61,-10.45,0,*6F
1507439297.62,19,10.25,72908.0,-1.75,-13.37,-9.71,0,*52
1507439298.84,20,10.25,72900.5,-1.75,-11.93,-8.21,0,*50
1507439300.06,21,10.25,72900.8,-1.75,-10.19,-7.73,0,*5A
1507439301.27,22,10.25,72892.0,-1.75,-9.97,-8.11,0,*6C
1507439302.45,23,10.25,72894.5,-1.75,-10.31,-8.63,0,*5C
1507439303.63,24,10.25,72884.3,-1.75,-11.01,-9.31,0,*5F
1507439304.87,25,10.25,72868.3,-1.77,-11.67,-9.31,0,*5C
1507439306.11,26,10.25,72878.0,-1.77,-11.55,-9.71,0,*5A
1507439307.36,27,10.25,72884.3,-1.77,-10.71,-9.71,0,*5C
1507439308.57,28,10.25,72888.5,-1.77,-10.57,-9.71,0,*57